Time,TemperatureF,DewpointF,PressureIn,WindDirection,WindDirectionDegrees,WindSpeedMPH,WindSpeedGustMPH,Humidity,HourlyPrecipIn,Conditions,Clouds,dailyrainin,SoftwareType,DateUTC
2013-01-15 00:03:00,16.0,10.0,30.35,SW,225,0.0,0.0,77,0.00,,,0.06,,2013-01-15 05:03:00,
2013-01-15 00:12:00,16.0,10.0,30.35,SW,225,0.0,0.0,77,0.00,,,0.06,,2013-01-15 05:12:00,
2013-01-15 00:22:00,16.0,10.0,30.35,SW,225,0.0,0.0,77,0.00,,,0.06,,2013-01-15 05:22:00,
2013-01-15 00:33:00,16.0,10.0,30.35,SW,225,0.0,0.0,78,0.00,,,0.06,,2013-01-15 05:33:00,
2013-01-15 00:42:00,16.0,10.0,30.35,SW,225,0.0,0.0,78,0.00,,,0.06,,2013-01-15 05:42:00,
2013-01-15 00:53:00,16.0,10.0,30.35,SW,225,0.0,0.0,78,0.00,,,0.06,,2013-01-15 05:53:00,
2013-01-15 01:02:00,15.0,9.0,30.35,SW,225,0.0,0.0,78,0.00,,,0.06,,2013-01-15 06:02:00,
2013-01-15 01:12:00,15.0,9.0,30.35,SW,225,0.0,0.0,78,0.00,,,0.06,,2013-01-15 06:12:00,
2013-01-15 01:22:00,15.0,9.0,30.34,SW,225,0.0,0.0,78,0.00,,,0.06,,2013-01-15 06:22:00,
2013-01-15 01:33:00,14.0,9.0,30.35,SW,225,0.0,0.0,79,0.00,,,0.06,,2013-01-15 06:33:00,
2013-01-15 01:43:00,14.0,9.0,30.35,SW,225,0.0,0.0,79,0.00,,,0.06,,2013-01-15 06:43:00,
2013-01-15 01:53:00,14.0,8.0,30.35,SW,225,0.0,0.0,78,0.00,,,0.06,,2013-01-15 06:53:00,
2013-01-15 02:02:00,14.0,9.0,30.34,SW,225,0.0,0.0,79,0.00,,,0.06,,2013-01-15 07:02:00,
2013-01-15 02:12:00,14.0,9.0,30.34,SW,225,0.0,0.0,79,0.00,,,0.06,,2013-01-15 07:12:00,
2013-01-15 02:22:00,14.0,9.0,30.35,SW,225,0.0,0.0,79,0.00,,,0.06,,2013-01-15 07:22:00,
2013-01-15 02:33:00,14.0,9.0,30.35,SW,225,0.0,0.0,79,0.00,,,0.06,,2013-01-15 07:33:00,
2013-01-15 02:42:00,14.0,9.0,30.35,SW,225,0.0,0.0,79,0.00,,,0.06,,2013-01-15 07:42:00,
2013-01-15 02:53:00,14.0,9.0,30.35,SW,225,0.0,0.0,79,0.00,,,0.06,,2013-01-15 07:53:00,
2013-01-15 03:02:00,14.0,9.0,30.36,SW,225,0.0,0.0,79,0.00,,,0.06,,2013-01-15 08:02:00,
2013-01-15 03:12:00,14.0,9.0,30.36,SW,225,0.0,0.0,79,0.00,,,0.06,,2013-01-15 08:12:00,
2013-01-15 03:22:00,13.0,8.0,30.37,SW,225,0.0,0.0,79,0.00,,,0.06,,2013-01-15 08:22:00,
2013-01-15 03:33:00,13.0,8.0,30.37,SW,225,0.0,0.0,80,0.00,,,0.06,,2013-01-15 08:33:00,
2013-01-15 03:42:00,13.0,8.0,30.37,SW,225,0.0,0.0,80,0.00,,,0.06,,2013-01-15 08:42:00,
2013-01-15 03:53:00,13.0,8.0,30.36,SW,225,0.0,0.0,80,0.00,,,0.06,,2013-01-15 08:53:00,
2013-01-15 04:02:00,13.0,8.0,30.36,SW,225,0.0,0.0,80,0.00,,,0.06,,2013-01-15 09:02:00,
2013-01-15 04:12:00,13.0,8.0,30.36,SW,225,0.0,0.0,80,0.00,,,0.06,,2013-01-15 09:12:00,
2013-01-15 04:22:00,13.0,8.0,30.36,SW,225,0.0,0.0,80,0.00,,,0.06,,2013-01-15 09:22:00,
2013-01-15 04:33:00,13.0,8.0,30.35,SW,225,0.0,0.0,80,0.00,,,0.06,,2013-01-15 09:33:00,
2013-01-15 04:42:00,13.0,8.0,30.35,SW,225,0.0,0.0,80,0.00,,,0.06,,2013-01-15 09:42:00,
2013-01-15 04:52:00,13.0,8.0,30.35,SW,225,0.0,0.0,80,0.00,,,0.06,,2013-01-15 09:52:00,
2013-01-15 05:02:00,13.0,8.0,30.35,SW,225,0.0,0.0,80,0.00,,,0.06,,2013-01-15 10:02:00,
2013-01-15 05:12:00,13.0,8.0,30.35,SW,225,0.0,0.0,80,0.00,,,0.06,,2013-01-15 10:12:00,
2013-01-15 05:22:00,12.0,7.0,30.35,SW,225,0.0,0.0,80,0.00,,,0.06,,2013-01-15 10:22:00,
2013-01-15 05:32:00,12.0,7.0,30.35,SW,225,0.0,0.0,81,0.00,,,0.06,,2013-01-15 10:32:00,
2013-01-15 05:42:00,12.0,7.0,30.35,SW,225,0.0,0.0,81,0.00,,,0.06,,2013-01-15 10:42:00,
2013-01-15 05:52:00,12.0,7.0,30.36,SW,225,0.0,0.0,81,0.00,,,0.06,,2013-01-15 10:52:00,
2013-01-15 06:03:00,12.0,7.0,30.35,SW,225,0.0,0.0,81,0.00,,,0.06,,2013-01-15 11:03:00,
2013-01-15 06:12:00,12.0,7.0,30.36,SW,225,0.0,0.0,81,0.00,,,0.06,,2013-01-15 11:12:00,
2013-01-15 06:22:00,12.0,7.0,30.36,SW,225,0.0,0.0,81,0.00,,,0.06,,2013-01-15 11:22:00,
2013-01-15 06:33:00,12.0,7.0,30.36,SW,225,0.0,0.0,81,0.00,,,0.06,,2013-01-15 11:33:00,
2013-01-15 06:42:00,12.0,7.0,30.36,SW,225,0.0,0.0,81,0.00,,,0.06,,2013-01-15 11:42:00,
2013-01-15 06:53:00,12.0,7.0,30.36,SW,225,0.0,0.0,81,0.00,,,0.06,,2013-01-15 11:53:00,
2013-01-15 07:03:00,12.0,7.0,30.36,SW,225,0.0,0.0,81,0.00,,,0.06,,2013-01-15 12:03:00,
2013-01-15 07:12:00,12.0,7.0,30.36,SW,225,0.0,0.0,81,0.00,,,0.06,,2013-01-15 12:12:00,
2013-01-15 07:22:00,12.0,7.0,30.37,SW,225,0.0,0.0,81,0.00,,,0.06,,2013-01-15 12:22:00,
2013-01-15 07:33:00,12.0,7.0,30.37,SW,225,0.0,0.0,81,0.00,,,0.06,,2013-01-15 12:33:00,
2013-01-15 07:43:00,12.0,7.0,30.37,SW,225,0.0,0.0,81,0.00,,,0.06,,2013-01-15 12:43:00,
2013-01-15 07:53:00,12.0,7.0,30.37,SW,225,0.0,0.0,81,0.00,,,0.06,,2013-01-15 12:53:00,
2013-01-15 08:03:00,12.0,7.0,30.37,SW,225,0.0,0.0,81,0.00,,,0.06,,2013-01-15 13:03:00,
2013-01-15 08:12:00,12.0,7.0,30.37,SW,225,0.0,0.0,81,0.00,,,0.06,,2013-01-15 13:12:00,
2013-01-15 08:23:00,11.0,7.0,30.37,SW,225,0.0,0.0,82,0.00,,,0.06,,2013-01-15 13:23:00,
2013-01-15 08:33:00,11.0,7.0,30.37,SW,225,0.0,0.0,82,0.00,,,0.06,,2013-01-15 13:33:00,
2013-01-15 08:43:00,11.0,7.0,30.37,SW,225,0.0,0.0,82,0.00,,,0.06,,2013-01-15 13:43:00,
2013-01-15 08:53:00,11.0,7.0,30.37,SW,225,0.0,0.0,82,0.00,,,0.06,,2013-01-15 13:53:00,
2013-01-15 09:03:00,12.0,8.0,30.37,SW,225,0.0,0.0,82,0.00,,,0.06,,2013-01-15 14:03:00,
2013-01-15 09:12:00,12.0,8.0,30.37,SW,225,0.0,0.0,82,0.00,,,0.06,,2013-01-15 14:12:00,
2013-01-15 09:23:00,13.0,9.0,30.38,SW,225,0.0,0.0,82,0.00,,,0.06,,2013-01-15 14:23:00,
2013-01-15 09:33:00,14.0,10.0,30.38,SW,225,0.0,0.0,82,0.00,,,0.06,,2013-01-15 14:33:00,
2013-01-15 09:43:00,14.0,10.0,30.38,SW,225,0.0,0.0,82,0.00,,,0.06,,2013-01-15 14:43:00,
2013-01-15 09:54:00,17.0,13.0,30.38,SW,225,0.0,0.0,83,0.00,,,0.06,,2013-01-15 14:54:00,
2013-01-15 10:03:00,18.0,14.0,30.38,SW,225,0.0,0.0,83,0.00,,,0.06,,2013-01-15 15:03:00,
2013-01-15 10:12:00,18.0,14.0,30.38,SW,225,0.0,0.0,83,0.00,,,0.06,,2013-01-15 15:12:00,
2013-01-15 10:23:00,20.0,16.0,30.38,SW,225,0.0,0.0,83,0.00,,,0.06,,2013-01-15 15:23:00,
2013-01-15 10:33:00,21.0,17.0,30.38,SW,225,0.0,0.0,83,0.00,,,0.06,,2013-01-15 15:33:00,
2013-01-15 10:43:00,21.0,17.0,30.38,SW,225,0.0,0.0,83,0.00,,,0.06,,2013-01-15 15:43:00,
2013-01-15 10:53:00,23.0,19.0,30.38,SSW,203,0.0,0.0,83,0.00,,,0.06,,2013-01-15 15:53:00,
2013-01-15 11:03:00,26.0,21.0,30.38,SSE,158,0.0,0.0,82,0.00,,,0.06,,2013-01-15 16:03:00,
2013-01-15 11:12:00,26.0,21.0,30.38,SSE,158,0.0,0.0,82,0.00,,,0.06,,2013-01-15 16:12:00,
2013-01-15 11:23:00,28.0,23.0,30.37,SSE,158,0.0,0.0,80,0.00,,,0.06,,2013-01-15 16:23:00,
2013-01-15 11:33:00,29.0,23.0,30.37,SSE,158,0.0,0.0,78,0.00,,,0.06,,2013-01-15 16:33:00,
2013-01-15 11:43:00,29.0,23.0,30.37,SSE,158,0.0,0.0,78,0.00,,,0.06,,2013-01-15 16:43:00,
2013-01-15 11:53:00,31.0,24.0,30.37,SW,225,0.0,0.0,75,0.02,,,0.08,,2013-01-15 16:53:00,
2013-01-15 12:03:00,29.0,21.0,30.37,WSW,248,0.0,0.0,72,0.02,,,0.08,,2013-01-15 17:03:00,
2013-01-15 12:12:00,29.0,21.0,30.37,WSW,248,0.0,0.0,72,0.02,,,0.08,,2013-01-15 17:12:00,
2013-01-15 12:23:00,30.0,22.0,30.37,South,180,0.0,0.0,72,0.02,,,0.08,,2013-01-15 17:23:00,
2013-01-15 12:33:00,29.0,20.0,30.35,SSW,203,0.0,0.0,70,0.02,,,0.08,,2013-01-15 17:33:00,
2013-01-15 12:42:00,29.0,20.0,30.35,SSW,203,0.0,0.0,70,0.02,,,0.08,,2013-01-15 17:42:00,
2013-01-15 12:53:00,29.0,20.0,30.35,South,180,1.0,5.0,69,0.00,,,0.06,,2013-01-15 17:53:00,
2013-01-15 13:03:00,30.0,21.0,30.34,WSW,248,2.0,3.0,68,0.00,,,0.06,,2013-01-15 18:03:00,
2013-01-15 13:13:00,30.0,21.0,30.34,WSW,248,2.0,3.0,68,0.00,,,0.06,,2013-01-15 18:13:00,
2013-01-15 13:23:00,30.0,21.0,30.32,SSW,203,0.0,0.0,68,0.00,,,0.06,,2013-01-15 18:23:00,
2013-01-15 13:33:00,30.0,20.0,30.31,SW,225,0.0,0.0,67,0.00,,,0.04,,2013-01-15 18:33:00,
2013-01-15 13:43:00,30.0,20.0,30.31,SW,225,0.0,0.0,67,0.00,,,0.04,,2013-01-15 18:43:00,
2013-01-15 13:53:00,30.0,20.0,30.30,West,270,0.0,0.0,66,0.00,,,0.04,,2013-01-15 18:53:00,
2013-01-15 14:03:00,31.0,21.0,30.29,SW,225,0.0,0.0,67,0.02,,,0.06,,2013-01-15 19:03:00,
2013-01-15 14:12:00,31.0,21.0,30.29,SW,225,0.0,0.0,67,0.02,,,0.06,,2013-01-15 19:12:00,
2013-01-15 14:23:00,32.0,22.0,30.30,SW,225,0.0,0.0,65,0.02,,,0.04,,2013-01-15 19:23:00,
2013-01-15 14:33:00,32.0,21.0,30.30,SSW,203,0.0,0.0,64,0.02,,,0.04,,2013-01-15 19:33:00,
2013-01-15 14:42:00,32.0,21.0,30.30,SSW,203,0.0,0.0,64,0.02,,,0.04,,2013-01-15 19:42:00,
2013-01-15 14:53:00,32.0,21.0,30.30,SW,225,0.0,0.0,63,0.02,,,0.04,,2013-01-15 19:53:00,
2013-01-15 15:03:00,32.0,21.0,30.30,SSE,158,0.0,1.0,63,0.00,,,0.04,,2013-01-15 20:03:00,
2013-01-15 15:12:00,32.0,21.0,30.30,SSE,158,0.0,1.0,63,0.00,,,0.04,,2013-01-15 20:12:00,
2013-01-15 15:23:00,31.0,20.0,30.28,South,180,0.0,0.0,63,0.00,,,0.04,,2013-01-15 20:23:00,
2013-01-15 15:33:00,31.0,20.0,30.28,SSE,158,0.0,0.0,64,0.00,,,0.04,,2013-01-15 20:33:00,
2013-01-15 15:43:00,31.0,20.0,30.28,SSE,158,0.0,0.0,64,0.00,,,0.04,,2013-01-15 20:43:00,
2013-01-15 15:53:00,30.0,19.0,30.28,South,180,1.0,1.0,63,0.00,,,0.04,,2013-01-15 20:53:00,
2013-01-15 16:03:00,29.0,19.0,30.28,South,180,0.0,0.0,65,0.00,,,0.04,,2013-01-15 21:03:00,
2013-01-15 16:13:00,29.0,19.0,30.28,South,180,0.0,0.0,65,0.00,,,0.04,,2013-01-15 21:13:00,
2013-01-15 16:23:00,28.0,18.0,30.27,SSW,203,1.0,2.0,65,0.00,,,0.04,,2013-01-15 21:23:00,
2013-01-15 16:33:00,28.0,18.0,30.27,SSW,203,0.0,0.0,66,0.00,,,0.04,,2013-01-15 21:33:00,
2013-01-15 16:43:00,28.0,18.0,30.27,SSW,203,0.0,0.0,66,0.00,,,0.04,,2013-01-15 21:43:00,
2013-01-15 16:53:00,29.0,19.0,30.26,South,180,0.0,0.0,66,0.00,,,0.04,,2013-01-15 21:53:00,
2013-01-15 17:03:00,28.0,18.0,30.26,South,180,0.0,0.0,66,0.00,,,0.04,,2013-01-15 22:03:00,
2013-01-15 17:12:00,28.0,18.0,30.26,South,180,0.0,0.0,66,0.00,,,0.04,,2013-01-15 22:12:00,
2013-01-15 17:23:00,27.0,17.0,30.25,SSW,203,0.0,0.0,66,0.00,,,0.04,,2013-01-15 22:23:00,
2013-01-15 17:33:00,26.0,17.0,30.25,SSW,203,0.0,0.0,67,0.00,,,0.04,,2013-01-15 22:33:00,
2013-01-15 17:43:00,26.0,17.0,30.25,SSW,203,0.0,0.0,67,0.00,,,0.04,,2013-01-15 22:43:00,
2013-01-15 17:53:00,26.0,17.0,30.25,WSW,248,0.0,0.0,68,0.00,,,0.04,,2013-01-15 22:53:00,
2013-01-15 18:02:00,25.0,16.0,30.25,SW,225,0.0,0.0,68,0.00,,,0.04,,2013-01-15 23:02:00,
2013-01-15 18:13:00,25.0,16.0,30.25,SW,225,0.0,0.0,68,0.00,,,0.04,,2013-01-15 23:13:00,
2013-01-15 18:22:00,25.0,16.0,30.25,SW,225,0.0,0.0,68,0.00,,,0.04,,2013-01-15 23:22:00,
2013-01-15 18:33:00,24.0,15.0,30.25,SW,225,0.0,0.0,69,0.00,,,0.04,,2013-01-15 23:33:00,
2013-01-15 18:43:00,24.0,15.0,30.25,SW,225,0.0,0.0,69,0.00,,,0.04,,2013-01-15 23:43:00,
2013-01-15 18:53:00,24.0,15.0,30.25,SW,225,0.0,0.0,69,0.00,,,0.04,,2013-01-15 23:53:00,
2013-01-15 19:03:00,23.0,15.0,30.24,SW,225,0.0,0.0,70,0.00,,,0.04,,2013-01-16 00:03:00,
2013-01-15 19:13:00,23.0,15.0,30.24,SW,225,0.0,0.0,70,0.00,,,0.04,,2013-01-16 00:13:00,
2013-01-15 19:22:00,23.0,15.0,30.24,SW,225,0.0,0.0,71,0.00,,,0.04,,2013-01-16 00:22:00,
2013-01-15 19:33:00,22.0,14.0,30.24,SW,225,0.0,0.0,71,0.00,,,0.04,,2013-01-16 00:33:00,
2013-01-15 19:43:00,22.0,14.0,30.24,SW,225,0.0,0.0,71,0.00,,,0.04,,2013-01-16 00:43:00,
2013-01-15 19:53:00,22.0,14.0,30.24,SW,225,0.0,0.0,72,0.00,,,0.04,,2013-01-16 00:53:00,
2013-01-15 20:03:00,21.0,13.0,30.23,SW,225,0.0,0.0,72,0.00,,,0.04,,2013-01-16 01:03:00,
2013-01-15 20:12:00,21.0,13.0,30.23,SW,225,0.0,0.0,72,0.00,,,0.04,,2013-01-16 01:12:00,
2013-01-15 20:22:00,21.0,14.0,30.22,SW,225,0.0,0.0,73,0.00,,,0.04,,2013-01-16 01:22:00,
2013-01-15 20:33:00,20.0,13.0,30.23,SW,225,0.0,0.0,73,0.00,,,0.04,,2013-01-16 01:33:00,
2013-01-15 20:42:00,20.0,13.0,30.23,SW,225,0.0,0.0,73,0.00,,,0.04,,2013-01-16 01:42:00,
2013-01-15 20:53:00,20.0,13.0,30.22,SW,225,0.0,0.0,74,0.00,,,0.04,,2013-01-16 01:53:00,
2013-01-15 21:03:00,19.0,12.0,30.21,SW,225,0.0,0.0,74,0.00,,,0.04,,2013-01-16 02:03:00,
2013-01-15 21:12:00,19.0,12.0,30.21,SW,225,0.0,0.0,74,0.00,,,0.04,,2013-01-16 02:12:00,
2013-01-15 21:22:00,19.0,12.0,30.20,SW,225,0.0,0.0,75,0.00,,,0.04,,2013-01-16 02:22:00,
2013-01-15 21:32:00,19.0,13.0,30.19,SW,225,0.0,0.0,76,0.00,,,0.04,,2013-01-16 02:32:00,
2013-01-15 21:42:00,19.0,13.0,30.19,SW,225,0.0,0.0,76,0.00,,,0.04,,2013-01-16 02:42:00,
2013-01-15 21:52:00,18.0,12.0,30.18,SW,225,0.0,0.0,76,0.00,,,0.04,,2013-01-16 02:52:00,
2013-01-15 22:03:00,18.0,12.0,30.17,SW,225,0.0,0.0,76,0.00,,,0.04,,2013-01-16 03:03:00,
2013-01-15 22:12:00,17.0,11.0,30.16,SW,225,0.0,0.0,77,0.00,,,0.04,,2013-01-16 03:12:00,
2013-01-15 22:22:00,17.0,11.0,30.16,SW,225,0.0,0.0,77,0.00,,,0.04,,2013-01-16 03:22:00,
2013-01-15 22:33:00,17.0,11.0,30.15,SW,225,0.0,0.0,77,0.00,,,0.04,,2013-01-16 03:33:00,
2013-01-15 22:43:00,17.0,11.0,30.15,SW,225,0.0,0.0,77,0.00,,,0.04,,2013-01-16 03:43:00,
2013-01-15 22:53:00,17.0,11.0,30.15,SW,225,0.0,0.0,78,0.00,,,0.04,,2013-01-16 03:53:00,
2013-01-15 23:02:00,16.0,10.0,30.15,SW,225,0.0,0.0,78,0.00,,,0.04,,2013-01-16 04:02:00,
2013-01-15 23:12:00,16.0,10.0,30.15,SW,225,0.0,0.0,78,0.00,,,0.04,,2013-01-16 04:12:00,
2013-01-15 23:22:00,16.0,10.0,30.14,SW,225,0.0,0.0,78,0.00,,,0.04,,2013-01-16 04:22:00,
2013-01-15 23:33:00,16.0,11.0,30.14,SW,225,0.0,0.0,79,0.00,,,0.04,,2013-01-16 04:33:00,
2013-01-15 23:42:00,16.0,11.0,30.14,SW,225,0.0,0.0,79,0.00,,,0.04,,2013-01-16 04:42:00,
2013-01-15 23:52:00,16.0,11.0,30.13,SW,225,0.0,0.0,79,0.00,,,0.04,,2013-01-16 04:52:00,